Погода в Страчово

Россия / Брянская область     52°08′53″N   34°08′25″E
темп.,
°C
ветер,
м/с
пор.,
м/с
влажн.,
%
обл.,
%
осадки,
мм/ч
давл.,
гПа
погр.,
м
22 апреля, чт
чт2200:00+3ю489481 0.0 1015168
03:00+4ю3891100 0.0 1015192
06:00+4ю499266 0.0 1015183
09:00+9ююз597592 0.2 1016440
12:00+14ююз686014 0.2 10161290
15:00+15юз795290 1.1 10151828
18:00+13юз6106598 1.5 1015798
21:00+9ю5137928 1.8 1016292
23 апреля, пт
пт2300:00+8ю5148184 0.1 1015330
03:00+9ю6157597 0.1 1015459
06:00+8ю6158156 0.1 1014555
09:00+9ююз6987100 0.7 1015796
12:00+6сз3495100 9.0 1016249
15:00+9з2572100 10.0 10151034
18:00+8зсз5771100 0.4 1014947
21:00+6з2378100 0.6 101478
24 апреля, сб
сб2400:00+5зюз4981100 0.0 1013313
03:00+2зюз378834 0.0 1013157
06:00+1зюз38915 0.0 1013197
09:00+5з467315 0.0 1013798
12:00+4з8885100 0.4 1013845
15:00+6з8105394 1.1 10131897
18:00+5зсз712705 0.8 10141532
21:00+2з512735 0.8 1016440
25 апреля, вс
вс2500:00+1зюз513795 0.0 1016380
03:000зюз5128425 0.0 1017308
06:00−1юз4108822 0.0 1017282
09:00+4з6106998 0.0 10171100
12:00+6зюз7106496 0.6 10161541
15:00+7зюз7105893 1.4 10161867
18:00+7зюз59635 0.6 10151507
21:00+2зсз22745 0.7 101624
26 апреля, пн
пн2600:00+1зюз227570 0.0 101613
03:000зюз227730 0.0 101624
06:000юз34785 0.0 101669
09:00+5зюз45585 0.0 1015712
12:00+8зюз564492 0.1 10132320
15:00+8зюз7747100 0.3 10121874
18:00+5з5771100 1.0 10121007
21:00+2з3587100 1.6 1012102